Flag for Botswana Weather past 2 weeks in Molepolole, Botswana

Now
61 °F

Overcast.


Feels Like: 61 °F
Forecast: 56 / 77 °F
Wind: 10 mph from Northeast

Location: Seretse Khama International Airport


UV Index: 7 (High)

Visibility: N/A


Pressure: 30.27 "Hg

Humidity: 83%

Dew point: 55 °F

Location of MolepololeLocation

Historic Weather in Molepolole

°F

Molepolole temperature yesterday

Maximum temperature yesterday: 77 °F (at 12:00 PM)
Minimum temperature yesterday: 59 °F (at 4:00 AM)
Average temperature yesterday: 67 °F

Past Weeks' High & Low Weather Summary

 TemperatureHumidityPressure
High88 °F (Apr 2, 4:00 PM)100% (Apr 5, 1:00 AM)30.42 "Hg (Apr 5, 1:00 AM)
Low54 °F (Apr 11, 6:00 AM)16% (Apr 3, 3:00 PM)29.92 "Hg (Apr 2, 5:00 PM)
Average67 °F66%30.22 "Hg
* Reported Apr 2 8:00 AM — Apr 17 8:00 AM, Molepolole, Weather by CustomWeather, © 2014

Note: Actual official high and low records may vary slightly from our data, if they occured in-between our weather recording intervals... More about our weather records

Advertising

Historic Weather Conditions — Data for Previous 24 hours

 ConditionsComfort  
Time TempWeatherWind HumidityBarometerVisibility
8:00 AM
Apr 17
61 °FOvercast.10 mph88%30.27 "HgN/A
7:00 AM59 °FLow clouds.12 mph88%30.24 "HgN/A
6:00 AM59 °FOvercast.9 mph94%30.24 "HgN/A
5:00 AM59 °FLow clouds.13 mph88%30.24 "HgN/A
4:00 AM57 °FClear.7 mph100%30.21 "Hg10 mi
3:00 AM59 °FPassing clouds.6 mph94%30.24 "HgN/A
2:00 AM59 °FClear.5 mph94%30.21 "Hg10 mi
1:00 AM59 °FPassing clouds.5 mph94%30.21 "HgN/A
12:00 AM61 °FPassing clouds.8 mph83%30.24 "HgN/A
11:00 PM
Apr 16
61 °FClear.6 mph88%30.24 "Hg10 mi
10:00 PM63 °FClear.5 mph77%30.21 "Hg10 mi
9:00 PM64 °FClear.9 mph73%30.18 "Hg10 mi
8:00 PM68 °FPassing clouds.7 mph64%30.15 "HgN/A
7:00 PM70 °FPassing clouds.9 mph57%30.15 "HgN/A
6:00 PM68 °FPassing clouds.7 mph56%30.12 "HgN/A
5:00 PM70 °FBroken clouds.9 mph60%30.12 "HgN/A
4:00 PM75 °FBroken clouds.6 mph50%30.12 "HgN/A
3:00 PM77 °FBroken clouds.3 mph47%30.12 "HgN/A
2:00 PM77 °FScattered clouds.8 mph47%30.12 "HgN/A
1:00 PM77 °FScattered clouds.8 mph51%30.15 "HgN/A
12:00 PM77 °FScattered clouds.8 mph51%30.18 "HgN/A
11:00 AM73 °FPassing clouds.7 mph61%30.21 "HgN/A
10:00 AM70 °FSunny.8 mph69%30.21 "Hg10 mi
9:00 AM68 °FPassing clouds.5 mph69%30.21 "HgN/A
Weather by CustomWeather, © 2014

See weather overview